owner,sensor,date,latitude,longitude,vertical_datum,wind_speed,wind_to_direction,wind_speed_of_gust,qcFlag 
DISL,ioos:station:DISL:KATA:1,2012-08-01T00:00:00Z,30.2583,-88.2131,0.0,6.44,216.6,-9999.0,'1111122,1111122,1111122' 
DISL,ioos:station:DISL:KATA:1,2012-08-01T00:30:00Z,30.2583,-88.2131,0.0,6.42,223.2,-9999.0,'1111122,1111122,1111122' 
DISL,ioos:station:DISL:KATA:1,2012-08-01T01:00:00Z,30.2583,-88.2131,0.0,6.26,225.2,-9999.0,'1111122,1111122,1111122' 
DISL,ioos:station:DISL:KATA:1,2012-08-01T01:30:00Z,30.2583,-88.2131,0.0,5.95,234.5,-9999.0,'1111122,1111122,1111122' 
DISL,ioos:station:DISL:KATA:1,2012-08-01T02:00:00Z,30.2583,-88.2131,0.0,5.2,237.2,-9999.0,'1111122,1111122,1111122' 
DISL,ioos:station:DISL:KATA:1,2012-08-01T02:30:00Z,30.2583,-88.2131,0.0,5.91,236.9,-9999.0,'1111122,1111122,1111122' 
DISL,ioos:station:DISL:KATA:1,2012-08-01T03:00:00Z,30.2583,-88.2131,0.0,5.83,235.0,-9999.0,'1111122,1111122,1111122' 
DISL,ioos:station:DISL:KATA:1,2012-08-01T03:30:00Z,30.2583,-88.2131,0.0,6.35,228.9,-9999.0,'1111122,1111122,1111122' 
DISL,ioos:station:DISL:KATA:1,2012-08-01T04:00:00Z,30.2583,-88.2131,0.0,6.87,224.8,-9999.0,'1111122,1111122,1111122' 
DISL,ioos:station:DISL:KATA:1,2012-08-01T04:30:00Z,30.2583,-88.2131,0.0,6.96,228.1,-9999.0,'1111122,1111122,1111122' 
DISL,ioos:station:DISL:KATA:1,2012-08-01T05:00:00Z,30.2583,-88.2131,0.0,6.66,230.2,-9999.0,'1111122,1111122,1111122' 
DISL,ioos:station:DISL:KATA:1,2012-08-01T05:30:00Z,30.2583,-88.2131,0.0,5.43,233.1,-9999.0,'1111122,1111122,1111122' 
DISL,ioos:station:DISL:KATA:1,2012-08-01T06:00:00Z,30.2583,-88.2131,0.0,5.73,240.8,-9999.0,'1111122,1111122,1111122' 
DISL,ioos:station:DISL:KATA:1,2012-08-01T06:30:00Z,30.2583,-88.2131,0.0,5.51,236.0,-9999.0,'1111122,1111122,1111122' 
DISL,ioos:station:DISL:KATA:1,2012-08-01T07:00:00Z,30.2583,-88.2131,0.0,6.61,240.1,-9999.0,'1111122,1111122,1111122' 
DISL,ioos:station:DISL:KATA:1,2012-08-01T07:30:00Z,30.2583,-88.2131,0.0,6.42,248.3,-9999.0,'1111122,1111122,1111122' 
DISL,ioos:station:DISL:KATA:1,2012-08-01T08:00:00Z,30.2583,-88.2131,0.0,6.12,251.6,-9999.0,'1111122,1111122,1111122' 
DISL,ioos:station:DISL:KATA:1,2012-08-01T08:30:00Z,30.2583,-88.2131,0.0,5.82,247.6,-9999.0,'1111122,1111122,1111122' 
DISL,ioos:station:DISL:KATA:1,2012-08-01T09:00:00Z,30.2583,-88.2131,0.0,6.0,245.4,-9999.0,'1111122,1111122,1111122' 
DISL,ioos:station:DISL:KATA:1,2012-08-01T09:30:00Z,30.2583,-88.2131,0.0,7.55,254.0,-9999.0,'1111122,1111122,1111122' 
DISL,ioos:station:DISL:KATA:1,2012-08-01T10:00:00Z,30.2583,-88.2131,0.0,8.24,266.3,-9999.0,'1111122,1111122,1111122' 
DISL,ioos:station:DISL:KATA:1,2012-08-01T10:30:00Z,30.2583,-88.2131,0.0,7.78,268.6,-9999.0,'1111122,1111122,1111122' 
DISL,ioos:station:DISL:KATA:1,2012-08-01T11:00:00Z,30.2583,-88.2131,0.0,6.84,271.4,-9999.0,'1111122,1111122,1111122' 
DISL,ioos:station:DISL:KATA:1,2012-08-01T11:30:00Z,30.2583,-88.2131,0.0,8.33,288.9,-9999.0,'1111122,1111122,1111122' 
DISL,ioos:station:DISL:KATA:1,2012-08-01T12:00:00Z,30.2583,-88.2131,0.0,6.89,297.9,-9999.0,'1111122,1111122,1111122' 
DISL,ioos:station:DISL:KATA:1,2012-08-01T12:30:00Z,30.2583,-88.2131,0.0,7.53,293.7,-9999.0,'1111122,1111122,1111122' 
DISL,ioos:station:DISL:KATA:1,2012-08-01T13:00:00Z,30.2583,-88.2131,0.0,8.24,304.1,-9999.0,'1111122,1111122,1111122' 
DISL,ioos:station:DISL:KATA:1,2012-08-01T13:30:00Z,30.2583,-88.2131,0.0,7.37,301.1,-9999.0,'1111122,1111122,1111122' 
DISL,ioos:station:DISL:KATA:1,2012-08-01T14:00:00Z,30.2583,-88.2131,0.0,5.45,288.3,-9999.0,'1111122,1111122,1111122' 
DISL,ioos:station:DISL:KATA:1,2012-08-01T14:30:00Z,30.2583,-88.2131,0.0,4.91,279.9,-9999.0,'1111122,1111122,1111122' 
DISL,ioos:station:DISL:KATA:1,2012-08-01T15:00:00Z,30.2583,-88.2131,0.0,4.63,261.7,-9999.0,'1111122,1111122,1111122' 
DISL,ioos:station:DISL:KATA:1,2012-08-01T15:30:00Z,30.2583,-88.2131,0.0,5.28,226.2,-9999.0,'1111122,1111122,1111122' 
DISL,ioos:station:DISL:KATA:1,2012-08-01T16:00:00Z,30.2583,-88.2131,0.0,10.0,200.0,-9999.0,'1111122,1111122,1111122' 
DISL,ioos:station:DISL:KATA:1,2012-08-01T16:30:00Z,30.2583,-88.2131,0.0,10.84,204.8,-9999.0,'1111122,1111122,1111122' 
DISL,ioos:station:DISL:KATA:1,2012-08-01T17:00:00Z,30.2583,-88.2131,0.0,10.44,220.1,-9999.0,'1111122,1111122,1111122' 
DISL,ioos:station:DISL:KATA:1,2012-08-01T17:30:00Z,30.2583,-88.2131,0.0,9.81,225.9,-9999.0,'1111122,1111122,1111122' 
DISL,ioos:station:DISL:KATA:1,2012-08-01T18:00:00Z,30.2583,-88.2131,0.0,9.21,228.5,-9999.0,'1111122,1111122,1111122' 
DISL,ioos:station:DISL:KATA:1,2012-08-01T18:30:00Z,30.2583,-88.2131,0.0,9.09,222.8,-9999.0,'1111122,1111122,1111122' 
DISL,ioos:station:DISL:KATA:1,2012-08-01T19:00:00Z,30.2583,-88.2131,0.0,8.04,230.4,-9999.0,'1111122,1111122,1111122' 
DISL,ioos:station:DISL:KATA:1,2012-08-01T19:30:00Z,30.2583,-88.2131,0.0,7.11,234.5,-9999.0,'1111122,1111122,1111122' 
DISL,ioos:station:DISL:KATA:1,2012-08-01T20:00:00Z,30.2583,-88.2131,0.0,7.36,243.2,-9999.0,'1111122,1111122,1111122' 
DISL,ioos:station:DISL:KATA:1,2012-08-01T20:30:00Z,30.2583,-88.2131,0.0,7.34,244.4,-9999.0,'1111122,1111122,1111122' 
DISL,ioos:station:DISL:KATA:1,2012-08-01T21:00:00Z,30.2583,-88.2131,0.0,7.12,243.7,-9999.0,'1111122,1111122,1111122' 
DISL,ioos:station:DISL:KATA:1,2012-08-01T21:30:00Z,30.2583,-88.2131,0.0,7.97,236.3,-9999.0,'1111122,1111122,1111122' 
DISL,ioos:station:DISL:KATA:1,2012-08-01T22:00:00Z,30.2583,-88.2131,0.0,7.94,243.7,-9999.0,'1111122,1111122,1111122' 
DISL,ioos:station:DISL:KATA:1,2012-08-01T22:30:00Z,30.2583,-88.2131,0.0,7.74,237.1,-9999.0,'1111122,1111122,1111122' 
DISL,ioos:station:DISL:KATA:1,2012-08-01T23:00:00Z,30.2583,-88.2131,0.0,7.82,238.3,-9999.0,'1111122,1111122,1111122' 
DISL,ioos:station:DISL:KATA:1,2012-08-01T23:30:00Z,30.2583,-88.2131,0.0,6.4,249.0,-9999.0,'1111122,1111122,1111122' 
DISL,ioos:station:DISL:KATA:1,2012-08-02T00:00:00Z,30.2583,-88.2131,0.0,4.14,262.8,-9999.0,'1111122,1111122,1111122' 
DISL,ioos:station:DISL:KATA:1,2012-08-02T00:30:00Z,30.2583,-88.2131,0.0,3.66,251.9,-9999.0,'1111122,1111122,1111122' 
DISL,ioos:station:DISL:KATA:1,2012-08-02T01:00:00Z,30.2583,-88.2131,0.0,3.4,245.3,-9999.0,'1111122,1111122,1111122' 
DISL,ioos:station:DISL:KATA:1,2012-08-02T01:30:00Z,30.2583,-88.2131,0.0,4.04,234.9,-9999.0,'1111122,1111122,1111122' 
DISL,ioos:station:DISL:KATA:1,2012-08-02T02:00:00Z,30.2583,-88.2131,0.0,3.67,232.3,-9999.0,'1111122,1111122,1111122' 
DISL,ioos:station:DISL:KATA:1,2012-08-02T02:30:00Z,30.2583,-88.2131,0.0,3.1,227.9,-9999.0,'1111122,1111122,1111122' 
DISL,ioos:station:DISL:KATA:1,2012-08-02T03:00:00Z,30.2583,-88.2131,0.0,3.32,222.0,-9999.0,'1111122,1111122,1111122' 
DISL,ioos:station:DISL:KATA:1,2012-08-02T03:30:00Z,30.2583,-88.2131,0.0,3.5,227.5,-9999.0,'1111122,1111122,1111122' 
DISL,ioos:station:DISL:KATA:1,2012-08-02T04:00:00Z,30.2583,-88.2131,0.0,3.94,217.7,-9999.0,'1111122,1111122,1111122' 
DISL,ioos:station:DISL:KATA:1,2012-08-02T04:30:00Z,30.2583,-88.2131,0.0,3.93,220.5,-9999.0,'1111122,1111122,1111122' 
DISL,ioos:station:DISL:KATA:1,2012-08-02T05:00:00Z,30.2583,-88.2131,0.0,4.1,225.9,-9999.0,'1111122,1111122,1111122' 
DISL,ioos:station:DISL:KATA:1,2012-08-02T05:30:00Z,30.2583,-88.2131,0.0,4.43,227.0,-9999.0,'1111122,1111122,1111122' 
DISL,ioos:station:DISL:KATA:1,2012-08-02T06:00:00Z,30.2583,-88.2131,0.0,4.36,240.1,-9999.0,'1111122,1111122,1111122' 
DISL,ioos:station:DISL:KATA:1,2012-08-02T06:30:00Z,30.2583,-88.2131,0.0,3.24,240.3,-9999.0,'1111122,1111122,1111122' 
DISL,ioos:station:DISL:KATA:1,2012-08-02T07:00:00Z,30.2583,-88.2131,0.0,3.08,228.0,-9999.0,'1111122,1111122,1111122' 
DISL,ioos:station:DISL:KATA:1,2012-08-02T07:30:00Z,30.2583,-88.2131,0.0,3.73,199.1,-9999.0,'1111122,1111122,1111122' 
DISL,ioos:station:DISL:KATA:1,2012-08-02T08:00:00Z,30.2583,-88.2131,0.0,3.73,233.7,-9999.0,'1111122,1111122,1111122' 
DISL,ioos:station:DISL:KATA:1,2012-08-02T08:30:00Z,30.2583,-88.2131,0.0,3.12,228.5,-9999.0,'1111122,1111122,1111122' 
DISL,ioos:station:DISL:KATA:1,2012-08-02T09:00:00Z,30.2583,-88.2131,0.0,4.17,262.0,-9999.0,'1111122,1111122,1111122' 
DISL,ioos:station:DISL:KATA:1,2012-08-02T09:30:00Z,30.2583,-88.2131,0.0,4.66,264.6,-9999.0,'1111122,1111122,1111122' 
DISL,ioos:station:DISL:KATA:1,2012-08-02T10:00:00Z,30.2583,-88.2131,0.0,4.19,274.9,-9999.0,'1111122,1111122,1111122' 
DISL,ioos:station:DISL:KATA:1,2012-08-02T10:30:00Z,30.2583,-88.2131,0.0,4.24,298.6,-9999.0,'1111122,1111122,1111122' 
DISL,ioos:station:DISL:KATA:1,2012-08-02T11:00:00Z,30.2583,-88.2131,0.0,5.51,285.3,-9999.0,'1111122,1111122,1111122' 
DISL,ioos:station:DISL:KATA:1,2012-08-02T11:30:00Z,30.2583,-88.2131,0.0,5.7,290.6,-9999.0,'1111122,1111122,1111122' 
DISL,ioos:station:DISL:KATA:1,2012-08-02T12:00:00Z,30.2583,-88.2131,0.0,5.64,280.6,-9999.0,'1111122,1111122,1111122' 
DISL,ioos:station:DISL:KATA:1,2012-08-02T12:30:00Z,30.2583,-88.2131,0.0,5.46,288.3,-9999.0,'1111122,1111122,1111122' 
DISL,ioos:station:DISL:KATA:1,2012-08-02T13:00:00Z,30.2583,-88.2131,0.0,6.92,299.1,-9999.0,'1111122,1111122,1111122' 
DISL,ioos:station:DISL:KATA:1,2012-08-02T13:30:00Z,30.2583,-88.2131,0.0,6.26,292.0,-9999.0,'1111122,1111122,1111122' 
DISL,ioos:station:DISL:KATA:1,2012-08-02T14:00:00Z,30.2583,-88.2131,0.0,5.96,280.0,-9999.0,'1111122,1111122,1111122' 
DISL,ioos:station:DISL:KATA:1,2012-08-02T14:30:00Z,30.2583,-88.2131,0.0,7.14,278.3,-9999.0,'1111122,1111122,1111122' 
DISL,ioos:station:DISL:KATA:1,2012-08-02T15:00:00Z,30.2583,-88.2131,0.0,6.8,282.1,-9999.0,'1111122,1111122,1111122' 
DISL,ioos:station:DISL:KATA:1,2012-08-02T15:30:00Z,30.2583,-88.2131,0.0,5.97,273.9,-9999.0,'1111122,1111122,1111122' 
DISL,ioos:station:DISL:KATA:1,2012-08-02T16:00:00Z,30.2583,-88.2131,0.0,4.96,280.0,-9999.0,'1111122,1111122,1111122' 
DISL,ioos:station:DISL:KATA:1,2012-08-02T16:30:00Z,30.2583,-88.2131,0.0,4.14,264.7,-9999.0,'1111122,1111122,1111122' 
DISL,ioos:station:DISL:KATA:1,2012-08-02T17:00:00Z,30.2583,-88.2131,0.0,4.18,265.6,-9999.0,'1111122,1111122,1111122' 
DISL,ioos:station:DISL:KATA:1,2012-08-02T17:30:00Z,30.2583,-88.2131,0.0,5.09,261.8,-9999.0,'1111122,1111122,1111122' 
DISL,ioos:station:DISL:KATA:1,2012-08-02T18:00:00Z,30.2583,-88.2131,0.0,5.55,248.6,-9999.0,'1111122,1111122,1111122' 
DISL,ioos:station:DISL:KATA:1,2012-08-02T18:30:00Z,30.2583,-88.2131,0.0,5.88,249.5,-9999.0,'1111122,1111122,1111122' 
DISL,ioos:station:DISL:KATA:1,2012-08-02T19:00:00Z,30.2583,-88.2131,0.0,4.39,259.7,-9999.0,'1111122,1111122,1111122' 
DISL,ioos:station:DISL:KATA:1,2012-08-02T19:30:00Z,30.2583,-88.2131,0.0,3.77,234.7,-9999.0,'1111122,1111122,1111122' 
DISL,ioos:station:DISL:KATA:1,2012-08-02T20:00:00Z,30.2583,-88.2131,0.0,2.82,231.6,-9999.0,'1111122,1111122,1111122' 
DISL,ioos:station:DISL:KATA:1,2012-08-02T20:30:00Z,30.2583,-88.2131,0.0,10.03,87.8,-9999.0,'1111122,1111122,1111122' 
DISL,ioos:station:DISL:KATA:1,2012-08-02T21:00:00Z,30.2583,-88.2131,0.0,6.21,85.4,-9999.0,'1111122,1111122,1111122' 
DISL,ioos:station:DISL:KATA:1,2012-08-02T21:30:00Z,30.2583,-88.2131,0.0,4.2,101.7,-9999.0,'1111122,1111122,1111122' 
DISL,ioos:station:DISL:KATA:1,2012-08-02T22:00:00Z,30.2583,-88.2131,0.0,0.68,47.28,-9999.0,'1111122,1111122,1111122' 
DISL,ioos:station:DISL:KATA:1,2012-08-02T22:30:00Z,30.2583,-88.2131,0.0,7.06,324.5,-9999.0,'1111122,1111122,1111122' 
DISL,ioos:station:DISL:KATA:1,2012-08-02T23:00:00Z,30.2583,-88.2131,0.0,4.22,317.2,-9999.0,'1111122,1111122,1111122' 
DISL,ioos:station:DISL:KATA:1,2012-08-02T23:30:00Z,30.2583,-88.2131,0.0,2.12,315.9,-9999.0,'1111122,1111122,1111122' 
DISL,ioos:station:DISL:KATA:1,2012-08-03T00:00:00Z,30.2583,-88.2131,0.0,3.12,31.43,-9999.0,'1111122,1111122,1111122' 
DISL,ioos:station:DISL:KATA:1,2012-08-03T00:30:00Z,30.2583,-88.2131,0.0,1.29,347.8,-9999.0,'1111122,1111122,1111122' 
DISL,ioos:station:DISL:KATA:1,2012-08-03T01:00:00Z,30.2583,-88.2131,0.0,1.87,69.51,-9999.0,'1111122,1111122,1111122' 
DISL,ioos:station:DISL:KATA:1,2012-08-03T01:30:00Z,30.2583,-88.2131,0.0,3.1,91.8,-9999.0,'1111122,1111122,1111122' 
DISL,ioos:station:DISL:KATA:1,2012-08-03T02:00:00Z,30.2583,-88.2131,0.0,3.26,114.8,-9999.0,'1111122,1111122,1111122' 
DISL,ioos:station:DISL:KATA:1,2012-08-03T02:30:00Z,30.2583,-88.2131,0.0,2.53,134.1,-9999.0,'1111122,1111122,1111122' 
DISL,ioos:station:DISL:KATA:1,2012-08-03T03:00:00Z,30.2583,-88.2131,0.0,3.12,127.1,-9999.0,'1111122,1111122,1111122' 
DISL,ioos:station:DISL:KATA:1,2012-08-03T03:30:00Z,30.2583,-88.2131,0.0,4.14,129.6,-9999.0,'1111122,1111122,1111122' 
DISL,ioos:station:DISL:KATA:1,2012-08-03T04:00:00Z,30.2583,-88.2131,0.0,4.14,154.8,-9999.0,'1111122,1111122,1111122' 
DISL,ioos:station:DISL:KATA:1,2012-08-03T04:30:00Z,30.2583,-88.2131,0.0,4.75,155.9,-9999.0,'1111122,1111122,1111122' 
DISL,ioos:station:DISL:KATA:1,2012-08-03T05:00:00Z,30.2583,-88.2131,0.0,3.76,156.0,-9999.0,'1111122,1111122,1111122' 
DISL,ioos:station:DISL:KATA:1,2012-08-03T05:30:00Z,30.2583,-88.2131,0.0,5.34,167.1,-9999.0,'1111122,1111122,1111122' 
DISL,ioos:station:DISL:KATA:1,2012-08-03T06:00:00Z,30.2583,-88.2131,0.0,5.0,173.6,-9999.0,'1111122,1111122,1111122' 
DISL,ioos:station:DISL:KATA:1,2012-08-03T06:30:00Z,30.2583,-88.2131,0.0,5.85,187.5,-9999.0,'1111122,1111122,1111122' 
DISL,ioos:station:DISL:KATA:1,2012-08-03T07:00:00Z,30.2583,-88.2131,0.0,6.45,199.3,-9999.0,'1111122,1111122,1111122' 
DISL,ioos:station:DISL:KATA:1,2012-08-03T07:30:00Z,30.2583,-88.2131,0.0,4.76,197.7,-9999.0,'1111122,1111122,1111122' 
DISL,ioos:station:DISL:KATA:1,2012-08-03T08:00:00Z,30.2583,-88.2131,0.0,4.51,201.5,-9999.0,'1111122,1111122,1111122' 
DISL,ioos:station:DISL:KATA:1,2012-08-03T08:30:00Z,30.2583,-88.2131,0.0,4.31,209.1,-9999.0,'1111122,1111122,1111122' 
DISL,ioos:station:DISL:KATA:1,2012-08-03T09:00:00Z,30.2583,-88.2131,0.0,4.46,204.8,-9999.0,'1111122,1111122,1111122' 
DISL,ioos:station:DISL:KATA:1,2012-08-03T09:30:00Z,30.2583,-88.2131,0.0,4.49,217.2,-9999.0,'1111122,1111122,1111122' 
DISL,ioos:station:DISL:KATA:1,2012-08-03T10:00:00Z,30.2583,-88.2131,0.0,4.39,216.5,-9999.0,'1111122,1111122,1111122' 
DISL,ioos:station:DISL:KATA:1,2012-08-03T10:30:00Z,30.2583,-88.2131,0.0,4.29,215.3,-9999.0,'1111122,1111122,1111122' 
DISL,ioos:station:DISL:KATA:1,2012-08-03T11:00:00Z,30.2583,-88.2131,0.0,3.41,216.4,-9999.0,'1111122,1111122,1111122' 
DISL,ioos:station:DISL:KATA:1,2012-08-03T11:30:00Z,30.2583,-88.2131,0.0,3.88,218.4,-9999.0,'1111122,1111122,1111122' 
DISL,ioos:station:DISL:KATA:1,2012-08-03T12:00:00Z,30.2583,-88.2131,0.0,4.85,241.0,-9999.0,'1111122,1111122,1111122' 
DISL,ioos:station:DISL:KATA:1,2012-08-03T12:30:00Z,30.2583,-88.2131,0.0,4.77,226.0,-9999.0,'1111122,1111122,1111122' 
DISL,ioos:station:DISL:KATA:1,2012-08-03T13:00:00Z,30.2583,-88.2131,0.0,5.54,289.7,-9999.0,'1111122,1111122,1111122' 
DISL,ioos:station:DISL:KATA:1,2012-08-03T13:30:00Z,30.2583,-88.2131,0.0,4.52,269.7,-9999.0,'1111122,1111122,1111122' 
DISL,ioos:station:DISL:KATA:1,2012-08-03T14:00:00Z,30.2583,-88.2131,0.0,2.32,289.1,-9999.0,'1111122,1111122,1111122' 
DISL,ioos:station:DISL:KATA:1,2012-08-03T14:30:00Z,30.2583,-88.2131,0.0,1.69,293.6,-9999.0,'1111122,1111122,1111122' 
DISL,ioos:station:DISL:KATA:1,2012-08-03T15:00:00Z,30.2583,-88.2131,0.0,1.65,285.4,-9999.0,'1111122,1111122,1111122' 
DISL,ioos:station:DISL:KATA:1,2012-08-03T15:30:00Z,30.2583,-88.2131,0.0,2.88,276.9,-9999.0,'1111122,1111122,1111122' 
DISL,ioos:station:DISL:KATA:1,2012-08-03T16:00:00Z,30.2583,-88.2131,0.0,2.02,276.6,-9999.0,'1111122,1111122,1111122' 
DISL,ioos:station:DISL:KATA:1,2012-08-03T16:30:00Z,30.2583,-88.2131,0.0,2.3,284.6,-9999.0,'1111122,1111122,1111122' 
DISL,ioos:station:DISL:KATA:1,2012-08-03T17:00:00Z,30.2583,-88.2131,0.0,2.47,273.3,-9999.0,'1111122,1111122,1111122' 
DISL,ioos:station:DISL:KATA:1,2012-08-03T17:30:00Z,30.2583,-88.2131,0.0,1.62,236.5,-9999.0,'1111122,1111122,1111122' 
DISL,ioos:station:DISL:KATA:1,2012-08-03T18:00:00Z,30.2583,-88.2131,0.0,2.59,214.0,-9999.0,'1111122,1111122,1111122' 
DISL,ioos:station:DISL:KATA:1,2012-08-03T18:30:00Z,30.2583,-88.2131,0.0,2.77,236.7,-9999.0,'1111122,1111122,1111122' 
DISL,ioos:station:DISL:KATA:1,2012-08-03T19:00:00Z,30.2583,-88.2131,0.0,4.04,211.5,-9999.0,'1111122,1111122,1111122' 
DISL,ioos:station:DISL:KATA:1,2012-08-03T19:30:00Z,30.2583,-88.2131,0.0,4.17,207.2,-9999.0,'1111122,1111122,1111122' 
DISL,ioos:station:DISL:KATA:1,2012-08-03T20:00:00Z,30.2583,-88.2131,0.0,4.52,201.6,-9999.0,'1111122,1111122,1111122' 
DISL,ioos:station:DISL:KATA:1,2012-08-03T20:30:00Z,30.2583,-88.2131,0.0,4.32,204.0,-9999.0,'1111122,1111122,1111122' 
DISL,ioos:station:DISL:KATA:1,2012-08-03T21:00:00Z,30.2583,-88.2131,0.0,4.25,207.5,-9999.0,'1111122,1111122,1111122' 
DISL,ioos:station:DISL:KATA:1,2012-08-03T21:30:00Z,30.2583,-88.2131,0.0,4.02,215.4,-9999.0,'1111122,1111122,1111122' 
DISL,ioos:station:DISL:KATA:1,2012-08-03T22:00:00Z,30.2583,-88.2131,0.0,4.21,198.9,-9999.0,'1111122,1111122,1111122' 
DISL,ioos:station:DISL:KATA:1,2012-08-03T22:30:00Z,30.2583,-88.2131,0.0,3.02,221.9,-9999.0,'1111122,1111122,1111122' 
DISL,ioos:station:DISL:KATA:1,2012-08-03T23:00:00Z,30.2583,-88.2131,0.0,2.92,240.8,-9999.0,'1111122,1111122,1111122' 
DISL,ioos:station:DISL:KATA:1,2012-08-03T23:30:00Z,30.2583,-88.2131,0.0,2.4,263.9,-9999.0,'1111122,1111122,1111122' 
DISL,ioos:station:DISL:KATA:1,2012-08-04T00:00:00Z,30.2583,-88.2131,0.0,2.39,283.3,-9999.0,'1111122,1111122,1111122' 
DISL,ioos:station:DISL:KATA:1,2012-08-04T00:30:00Z,30.2583,-88.2131,0.0,1.03,334.4,-9999.0,'1111122,1111122,1111122' 
DISL,ioos:station:DISL:KATA:1,2012-08-04T01:00:00Z,30.2583,-88.2131,0.0,7.29,54.11,-9999.0,'1111122,1111122,1111122' 
DISL,ioos:station:DISL:KATA:1,2012-08-04T01:30:00Z,30.2583,-88.2131,0.0,7.14,47.5,-9999.0,'1111122,1111122,1111122' 
DISL,ioos:station:DISL:KATA:1,2012-08-04T02:00:00Z,30.2583,-88.2131,0.0,6.49,67.39,-9999.0,'1111122,1111122,1111122' 
DISL,ioos:station:DISL:KATA:1,2012-08-04T02:30:00Z,30.2583,-88.2131,0.0,5.48,85.4,-9999.0,'1111122,1111122,1111122' 
DISL,ioos:station:DISL:KATA:1,2012-08-04T03:00:00Z,30.2583,-88.2131,0.0,3.49,91.1,-9999.0,'1111122,1111122,1111122' 
DISL,ioos:station:DISL:KATA:1,2012-08-04T03:30:00Z,30.2583,-88.2131,0.0,3.24,78.0,-9999.0,'1111122,1111122,1111122' 
DISL,ioos:station:DISL:KATA:1,2012-08-04T04:00:00Z,30.2583,-88.2131,0.0,3.87,62.97,-9999.0,'1111122,1111122,1111122' 
DISL,ioos:station:DISL:KATA:1,2012-08-04T04:30:00Z,30.2583,-88.2131,0.0,5.83,88.9,-9999.0,'1111122,1111122,1111122' 
DISL,ioos:station:DISL:KATA:1,2012-08-04T05:00:00Z,30.2583,-88.2131,0.0,4.7,93.7,-9999.0,'1111122,1111122,1111122' 
DISL,ioos:station:DISL:KATA:1,2012-08-04T05:30:00Z,30.2583,-88.2131,0.0,5.56,93.4,-9999.0,'1111122,1111122,1111122' 
DISL,ioos:station:DISL:KATA:1,2012-08-04T06:00:00Z,30.2583,-88.2131,0.0,5.85,108.3,-9999.0,'1111122,1111122,1111122' 
DISL,ioos:station:DISL:KATA:1,2012-08-04T06:30:00Z,30.2583,-88.2131,0.0,5.51,105.0,-9999.0,'1111122,1111122,1111122' 
DISL,ioos:station:DISL:KATA:1,2012-08-04T07:00:00Z,30.2583,-88.2131,0.0,5.65,118.9,-9999.0,'1111122,1111122,1111122' 
DISL,ioos:station:DISL:KATA:1,2012-08-04T07:30:00Z,30.2583,-88.2131,0.0,6.01,148.4,-9999.0,'1111122,1111122,1111122' 
DISL,ioos:station:DISL:KATA:1,2012-08-04T08:00:00Z,30.2583,-88.2131,0.0,5.36,161.7,-9999.0,'1111122,1111122,1111122' 
DISL,ioos:station:DISL:KATA:1,2012-08-04T08:30:00Z,30.2583,-88.2131,0.0,4.48,167.5,-9999.0,'1111122,1111122,1111122' 
DISL,ioos:station:DISL:KATA:1,2012-08-04T09:00:00Z,30.2583,-88.2131,0.0,4.54,164.7,-9999.0,'1111122,1111122,1111122' 
DISL,ioos:station:DISL:KATA:1,2012-08-04T09:30:00Z,30.2583,-88.2131,0.0,3.91,162.2,-9999.0,'1111122,1111122,1111122' 
DISL,ioos:station:DISL:KATA:1,2012-08-04T10:00:00Z,30.2583,-88.2131,0.0,3.82,154.4,-9999.0,'1111122,1111122,1111122' 
DISL,ioos:station:DISL:KATA:1,2012-08-04T10:30:00Z,30.2583,-88.2131,0.0,2.84,149.1,-9999.0,'1111122,1111122,1111122' 
DISL,ioos:station:DISL:KATA:1,2012-08-04T11:00:00Z,30.2583,-88.2131,0.0,2.22,128.6,-9999.0,'1111122,1111122,1111122' 
DISL,ioos:station:DISL:KATA:1,2012-08-04T11:30:00Z,30.2583,-88.2131,0.0,4.26,265.7,-9999.0,'1111122,1111122,1111122' 
DISL,ioos:station:DISL:KATA:1,2012-08-04T12:00:00Z,30.2583,-88.2131,0.0,4.6,272.4,-9999.0,'1111122,1111122,1111122' 
DISL,ioos:station:DISL:KATA:1,2012-08-04T12:30:00Z,30.2583,-88.2131,0.0,1.89,197.9,-9999.0,'1111122,1111122,1111122' 
DISL,ioos:station:DISL:KATA:1,2012-08-04T13:00:00Z,30.2583,-88.2131,0.0,4.34,183.2,-9999.0,'1111122,1111122,1111122' 
DISL,ioos:station:DISL:KATA:1,2012-08-04T13:30:00Z,30.2583,-88.2131,0.0,2.24,270.6,-9999.0,'1111122,1111122,1111122' 
DISL,ioos:station:DISL:KATA:1,2012-08-04T14:00:00Z,30.2583,-88.2131,0.0,2.67,283.3,-9999.0,'1111122,1111122,1111122' 
DISL,ioos:station:DISL:KATA:1,2012-08-04T14:30:00Z,30.2583,-88.2131,0.0,3.42,295.2,-9999.0,'1111122,1111122,1111122' 
DISL,ioos:station:DISL:KATA:1,2012-08-04T15:00:00Z,30.2583,-88.2131,0.0,4.43,293.3,-9999.0,'1111122,1111122,1111122' 
DISL,ioos:station:DISL:KATA:1,2012-08-04T15:30:00Z,30.2583,-88.2131,0.0,4.1,310.9,-9999.0,'1111122,1111122,1111122' 
DISL,ioos:station:DISL:KATA:1,2012-08-04T16:00:00Z,30.2583,-88.2131,0.0,2.96,325.5,-9999.0,'1111122,1111122,1111122' 
DISL,ioos:station:DISL:KATA:1,2012-08-04T16:30:00Z,30.2583,-88.2131,0.0,0.82,330.3,-9999.0,'1111122,1111122,1111122' 
DISL,ioos:station:DISL:KATA:1,2012-08-04T17:00:00Z,30.2583,-88.2131,0.0,0.88,331.2,-9999.0,'1111122,1111122,1111122' 
DISL,ioos:station:DISL:KATA:1,2012-08-04T17:30:00Z,30.2583,-88.2131,0.0,0.32,133.2,-9999.0,'1111122,1111122,1111122' 
DISL,ioos:station:DISL:KATA:1,2012-08-04T18:00:00Z,30.2583,-88.2131,0.0,1.87,73.73,-9999.0,'1111122,1111122,1111122' 
DISL,ioos:station:DISL:KATA:1,2012-08-04T18:30:00Z,30.2583,-88.2131,0.0,3.17,95.1,-9999.0,'1111122,1111122,1111122' 
DISL,ioos:station:DISL:KATA:1,2012-08-04T19:00:00Z,30.2583,-88.2131,0.0,3.33,150.1,-9999.0,'1111122,1111122,1111122' 
DISL,ioos:station:DISL:KATA:1,2012-08-04T19:30:00Z,30.2583,-88.2131,0.0,2.86,142.1,-9999.0,'1111122,1111122,1111122' 
DISL,ioos:station:DISL:KATA:1,2012-08-04T20:00:00Z,30.2583,-88.2131,0.0,3.83,146.3,-9999.0,'1111122,1111122,1111122' 
DISL,ioos:station:DISL:KATA:1,2012-08-04T20:30:00Z,30.2583,-88.2131,0.0,5.07,141.1,-9999.0,'1111122,1111122,1111122' 
DISL,ioos:station:DISL:KATA:1,2012-08-04T21:00:00Z,30.2583,-88.2131,0.0,4.6,133.2,-9999.0,'1111122,1111122,1111122' 
DISL,ioos:station:DISL:KATA:1,2012-08-04T21:30:00Z,30.2583,-88.2131,0.0,5.41,146.1,-9999.0,'1111122,1111122,1111122' 
DISL,ioos:station:DISL:KATA:1,2012-08-04T22:00:00Z,30.2583,-88.2131,0.0,5.54,142.6,-9999.0,'1111122,1111122,1111122' 
DISL,ioos:station:DISL:KATA:1,2012-08-04T22:30:00Z,30.2583,-88.2131,0.0,5.02,151.8,-9999.0,'1111122,1111122,1111122' 
DISL,ioos:station:DISL:KATA:1,2012-08-04T23:00:00Z,30.2583,-88.2131,0.0,3.88,161.2,-9999.0,'1111122,1111122,1111122' 
DISL,ioos:station:DISL:KATA:1,2012-08-04T23:30:00Z,30.2583,-88.2131,0.0,2.4,157.0,-9999.0,'1111122,1111122,1111122' 
DISL,ioos:station:DISL:KATA:1,2012-08-05T00:00:00Z,30.2583,-88.2131,0.0,2.74,151.8,-9999.0,'1111122,1111122,1111122' 
DISL,ioos:station:DISL:KATA:1,2012-08-05T00:30:00Z,30.2583,-88.2131,0.0,2.58,138.9,-9999.0,'1111122,1111122,1111122' 
DISL,ioos:station:DISL:KATA:1,2012-08-05T01:00:00Z,30.2583,-88.2131,0.0,3.12,130.4,-9999.0,'1111122,1111122,1111122' 
DISL,ioos:station:DISL:KATA:1,2012-08-05T01:30:00Z,30.2583,-88.2131,0.0,1.74,127.7,-9999.0,'1111122,1111122,1111122' 
DISL,ioos:station:DISL:KATA:1,2012-08-05T02:00:00Z,30.2583,-88.2131,0.0,3.26,95.2,-9999.0,'1111122,1111122,1111122' 
DISL,ioos:station:DISL:KATA:1,2012-08-05T02:30:00Z,30.2583,-88.2131,0.0,4.01,98.5,-9999.0,'1111122,1111122,1111122' 
DISL,ioos:station:DISL:KATA:1,2012-08-05T03:00:00Z,30.2583,-88.2131,0.0,4.59,101.1,-9999.0,'1111122,1111122,1111122' 
DISL,ioos:station:DISL:KATA:1,2012-08-05T03:30:00Z,30.2583,-88.2131,0.0,4.08,91.8,-9999.0,'1111122,1111122,1111122' 
DISL,ioos:station:DISL:KATA:1,2012-08-05T04:00:00Z,30.2583,-88.2131,0.0,4.77,106.4,-9999.0,'1111122,1111122,1111122' 
DISL,ioos:station:DISL:KATA:1,2012-08-05T04:30:00Z,30.2583,-88.2131,0.0,5.44,112.4,-9999.0,'1111122,1111122,1111122' 